Preview of NWS' New Version of Forecast
This preview is not operational and should not be used for support decisions.

Regional Weather Roundup (RWR)

Issued by National Weather Service (NWS)

                            
000
ASUS43 KMKX 251801
RWRWI 

WISCONSIN REGIONAL WEATHER ROUNDUP
NATIONAL WEATHER SERVICE MILWAUKEE/SULLIVAN WI
100 PM CDT SUN AUG 25 2019

NOTE: "FAIR" INDICATES FEW OR NO CLOUDS BELOW 12,000 FEET WITH NO
SIGNIFICANT WEATHER AND/OR OBSTRUCTIONS TO VISIBILITY.

WIZ001-002-006>008-014>016-023>028-251900-
NORTHWEST WISCONSIN
  
CITY           SKY/WX    TMP DP  RH WIND       PRES   REMARKS
SUPERIOR ARPT  PTSUNNY   72  53  52 SE13      30.03F                  
6HR MIN TEMP:  60; 6HR MAX TEMP:  73;                                

ASHLAND        PTSUNNY   72  51  47 S10       30.07F                  
6HR MIN TEMP:  59; 6HR MAX TEMP:  75;                                

HAYWARD        FAIR      69  52  54 S13G24    30.07F                  
6HR MIN TEMP:  57; 6HR MAX TEMP:  71;                                

SIREN          FAIR      71  54  56 SE9       30.05F                  
CUMBERLAND     PTSUNNY   68  52  56 SE16      30.07F                  
RICE LAKE      NOT AVBL                                               
CHETEK         PTSUNNY   70  54  57 SE15G22   30.08F                  
LADYSMITH      PTSUNNY   70  54  56 S8G18     30.11F                  
6HR MIN TEMP:  53; 6HR MAX TEMP:  71;                                

EAU CLAIRE     NOT AVBL                                               
MENOMONIE      LGT RAIN  63  52  67 SE13      30.06F                  
6HR MIN TEMP:  54; 6HR MAX TEMP:  69;                                

NEW RICHMOND   FAIR      70  54  56 S12G17    30.04F                  
OSCEOLA        PTSUNNY   70  56  60 SE13      30.06F                  
$$
 
WIZ003>005-009-010-017-018-251900-
NORTH CENTRAL WISCONSIN
  
CITY           SKY/WX    TMP DP  RH WIND       PRES   REMARKS
MANITOWISH WTR CLOUDY    67  54  61 S13       30.12F                  
6HR MIN TEMP:  49; 6HR MAX TEMP:  69;                                

ARBOR VITAE    PTSUNNY   71  57  61 S12G17    30.13F                  
WOODRUFF       PTSUNNY   71  57  61 S12G17    30.13F                  
RHINELANDER    PTSUNNY   70  54  56 S7        30.14F                  
6HR MIN TEMP:  52; 6HR MAX TEMP:  71;                                

EAGLE RIVER    PTSUNNY   69  52  54 S13       30.14F                  
LAND O LAKES   PTSUNNY   69  52  54 S8G16     30.16F                  
6HR MIN TEMP:  44; 6HR MAX TEMP:  70;                                

PHILLIPS       PTSUNNY   69  55  60 S13       30.10F                  
6HR MIN TEMP:  52; 6HR MAX TEMP:  70;                                

TOMAHAWK       PTSUNNY   70  55  59 SE5       30.13F                  
MEDFORD        CLOUDY    68  55  63 SE13      30.12F                  
MERRILL        FAIR      71  55  56 S14G21    30.12F                  
6HR MIN TEMP:  49; 6HR MAX TEMP:  71;                                

$$
 
WIZ029-030-035-036-043>047-251900-
CENTRAL WISCONSIN
  
CITY           SKY/WX    TMP DP  RH WIND       PRES   REMARKS
WAUSAU         PTSUNNY   70  54  56 S10       30.11F                  
6HR MIN TEMP:  52; 6HR MAX TEMP:  72;                                

MOSINEE        PTSUNNY   70  57  64 SE9       30.13F                  
MARSHFIELD     PTSUNNY   71  54  54 S10       30.11F                  
6HR MIN TEMP:  53; 6HR MAX TEMP:  71;                                

STEVENS POINT  PTSUNNY   68  53  56 SE13G18   30.13F                  
WAUPACA        FAIR      76  54  46 SE12G18   30.12F                  
6HR MIN TEMP:  55; 6HR MAX TEMP:  78;                                

WAUTOMA        PTSUNNY   72  55  55 SE12      30.12F                  
6HR MIN TEMP:  55; 6HR MAX TEMP:  73;                                

WISC RAPIDS    CLOUDY    73  53  49 S10G20    30.11F                  
6HR MIN TEMP:  57; 6HR MAX TEMP:  73;                                

CAMP DOUGLAS   NOT AVBL                                               
$$
 
WIZ011>013-019>022-031-037>040-048>050-251900-
NORTHEAST WISCONSIN
  
CITY           SKY/WX    TMP DP  RH WIND       PRES   REMARKS
ANTIGO         FAIR      70  55  58 SE10G16   30.15F                  
6HR MIN TEMP:  55; 6HR MAX TEMP:  70;                                

SHAWANO        FAIR      75  57  53 E10G16    30.13F                  
6HR MIN TEMP:  58; 6HR MAX TEMP:  76;                                

OCONTO         FAIR      72  56  57 SE13      30.16S                  
STURGEON BAY   FAIR      68  57  68 SE13      30.18S                  
6HR MIN TEMP:  59; 6HR MAX TEMP:  69;                                

GREEN BAY      PTSUNNY   73  56  54 SE16      30.15S                  
6HR MIN TEMP:  56; 6HR MAX TEMP:  75;                                

MANITOWOC      FAIR      68  59  73 E14       30.16F                  
6HR MIN TEMP:  65; 6HR MAX TEMP:  69;                                

APPLETON       PTSUNNY   70  55  60 SE8       30.13F                  
CLINTONVILLE   PTSUNNY   73  54  51 SE10      30.14S                  
OSHKOSH        FAIR      73  55  53 SE13      30.12F                  
6HR MIN TEMP:  62; 6HR MAX TEMP:  73;                                

$$
 
WIZ032>034-041-042-053>061-251900-
SOUTHWEST WISCONSIN
  
CITY           SKY/WX    TMP DP  RH WIND       PRES   REMARKS
LA CROSSE      FAIR      72  56  57 SE7       30.06F                  
6HR MIN TEMP:  60; 6HR MAX TEMP:  74;                                

SPARTA         PTSUNNY   69  55  60 SE8       30.10S                  
VIROQUA        FAIR      67  59  76 SE7       30.09F                  
6HR MIN TEMP:  53; 6HR MAX TEMP:  68;                                

BOSCOBEL       PTSUNNY   72  57  59 CALM      30.07F                  
6HR MIN TEMP:  55; 6HR MAX TEMP:  75;                                

PRAIRIE DU CHI CLOUDY    67  59  76 E3        30.06F                  
PLATTEVILLE    CLOUDY    70  61  73 SE12      30.07F                  
6HR MIN TEMP:  55; 6HR MAX TEMP:  71;                                

$$

WIZ056-057-062-063-064-067-068-251900-
SOUTH CENTRAL WISCONSIN
  
CITY           SKY/WX    TMP DP  RH WIND       PRES   REMARKS
REEDSBURG      PTSUNNY   70  55  59 SE9       30.09F                  
6HR MIN TEMP:  54; 6HR MAX TEMP:  72;                                

BARABOO/DELLS  CLOUDY    71  55  56 SE9       30.11F                  
LONE ROCK      NOT AVBL                                               
MINERAL POINT  FAIR      72  63  73 SE7       30.09F                  
MADISON        PTSUNNY   72  56  57 SE9       30.09F                  
6HR MIN TEMP:  56; 6HR MAX TEMP:  74;                                

MIDDLETON      PTSUNNY   73  55  52 SE14G20   30.10F                  
WATERTOWN      PTSUNNY   72  59  63 E9        30.11S                  
MONROE         FAIR      72  56  57 SE7       30.09F                  
JANESVILLE     PTSUNNY   77  55  47 SE12      30.09F                  
$$
 
WIZ051-052-058>065-066-070>072-251900-
SOUTHEAST WISCONSIN
  
CITY           SKY/WX    TMP DP  RH WIND       PRES   REMARKS
MILWAUKEE      PTSUNNY   73  59  61 SE15G21   30.12F                  
6HR MIN TEMP:  66; 6HR MAX TEMP:  75;                                

WAUKESHA       PTSUNNY   70  55  60 SE15      30.13F                  
MILWAUKEE/TIMM MOSUNNY   72  55  56 SE9G16    30.13F                  
RACINE         FAIR      73  58  59 SE14G21   30.14F                  
6HR MIN TEMP:  67; 6HR MAX TEMP:  76;                                

KENOSHA        FAIR      74  59  59 SE10G22   30.12F                  
6HR MIN TEMP:  64; 6HR MAX TEMP:  75;                                

FOND DU LAC    PTSUNNY   76  55  48 SE10G20   30.12F                  
6HR MIN TEMP:  58; 6HR MAX TEMP:  76;                                

SHEBOYGAN      FAIR      70  58  65 SE10G20   30.15F                  
6HR MIN TEMP:  55; 6HR MAX TEMP:  72;                                

WEST BEND      CLOUDY    70  59  68 E8        30.13F                  
JUNEAU         FAIR      70  57  62 E7        30.12F                  
6HR MIN TEMP:  56; 6HR MAX TEMP:  73;                                

$$

LSZ147-162-251900-
LAKE SUPERIOR
  
STATION/POSITION TIME  TEMP    WIND        PRES    WAVE
                       AIR SEA DIR/SP/G            HT/PER
                 (UTC) (F)     (DEG/KT/KT) (MB)    (FT/S)
W MID LAKE BUOY  1650   64 64  160/ 12/ 14 1019.3F   3/ 5
DEVILS ISLAND    1700   69     200/  5/  8 1018.8F
SAXON HARBOR     1730   72     200/ 11/ 16 1017.9F
$$
 
LMZ867-665-643>646-251900-
LAKE MICHIGAN
  
STATION/POSITION TIME  TEMP    WIND        PRES    WAVE
                       AIR SEA DIR/SP/G            HT/PER
                 (UTC) (F)     (DEG/KT/KT) (MB)    (FT/S)
S GREEN BAY BUOY 1730   74 70  140/ 14/ 16 1021.2F
N MID LAKE BUOY  1740   67 70  120/  8/ 10 1022.8F
NORTHPORT PIER   1740   67     120/  7/  8 1022.0S
KEWAUNEE LAKESHO 1730   67     150/ 10/ 15 1021.0F
SHEBOYGAN LAKESH 1700   67     140/ 14/ 16 1021.3F
PORT WASHINGTON  1730   70     150/ 11/ 13 1021.7F
ATWATER BUOY     1730   68 69  140/ 10/ 14 1020.7F   3/ 5
S MID LAKE BUOY  1740   69 72  120/ 14/ 16 1020.7F
KENOSHA   LAKESH 1700   71     140/ 12/ 14 1020.3
$$

TC  - TEMPERATURE IN CELSIUS
VSB - VISIBILITY IN STATUTE MILES
WCI - WIND CHILL INDEX
HX  - HEAT INDEX